Location: Caltech
(34.1382°N, 118.1253°W)
Time: 19:06:58
(UTC-07:00)

SL-08 R/B - Visible Passes

Search period start: 01 July 2016 00:00
Search period end: 11 July 2016 00:00
Orbit: 675 x 740 km, 98.2° (Epoch: 30 June)

Date Brightness Start Highest point End Pass type
(mag) Time Alt. Az. Time Alt. Az. Time Alt. Az.
01 Jul 3.4 02:47:12 75° E 02:47:15 75° ENE 02:52:09 10° N visible
02 Jul 5.4 01:53:07 20° E 01:54:04 21° ENE 01:57:40 10° NNE visible
02 Jul 4.1 03:32:06 35° W 03:32:06 35° W 03:36:08 10° NNW visible
03 Jul 3.7 02:38:01 59° E 02:38:08 59° ENE 02:42:56 10° N visible
03 Jul 5.4 04:17:01 12° W 04:17:01 12° W 04:18:06 10° WNW visible
04 Jul 5.6 01:43:56 16° E 01:45:00 17° ENE 01:48:05 10° NNE visible
04 Jul 3.9 03:22:56 44° W 03:22:56 44° W 03:27:08 10° NNW visible
05 Jul 4.1 02:28:51 47° E 02:29:02 47° ENE 02:33:41 10° N visible
05 Jul 5.2 04:07:51 15° W 04:07:51 15° W 04:09:51 10° WNW visible
06 Jul 5.9 01:34:47 13° E 01:35:58 14° ENE 01:38:18 10° NE visible
06 Jul 3.6 03:13:46 54° WNW 03:13:46 54° WNW 03:18:05 10° NNW visible
07 Jul 4.5 02:19:42 37° ENE 02:19:55 38° ENE 02:24:23 10° N visible
07 Jul 5.0 03:58:42 18° W 03:58:42 18° W 04:01:15 10° NW visible
08 Jul 6.1 01:25:53 10° ENE 01:26:56 11° ENE 01:27:57 10° NE visible
08 Jul 3.4 03:04:37 66° WNW 03:04:37 66° WNW 03:08:59 10° NNW visible
09 Jul 4.8 02:10:33 30° ENE 02:10:49 30° ENE 02:15:01 10° N visible
09 Jul 4.8 03:49:33 22° WNW 03:49:33 22° WNW 03:52:29 10° NW visible
10 Jul 3.4 02:55:28 73° NNW 02:55:28 73° NNW 02:59:50 10° NNW visible
